Regional Weather Roundup
Issued by NWS

Home | Current Version | Previous Version | Text Only | Print | Product List | Glossary On
Versions: 1 2 3 4 5 6 7 8 9 10 11 12 13 14 15 16 17 18 19 20 21 22 23 24 25 26 27 28 29 30 31 32 33 34 35 36 37 38 39 40 41 42 43 44 45 46 47 48 49 50
000
ASUS43 KBIS 202320
RWRND

NORTH DAKOTA REGIONAL WEATHER ROUNDUP
NATIONAL WEATHER SERVICE BISMARCK ND
600 PM CDT SUN APR 20 2014

NOTE: "FAIR" INDICATES FEW OR NO CLOUDS BELOW 12,000 FEET WITH NO
SIGNIFICANT WEATHER AND/OR OBSTRUCTIONS TO VISIBILITY.


NDZ001>003-009>011-017-210000-
NORTHWEST NORTH DAKOTA

CITY           SKY/WX    TMP DP  RH WIND       PRES   REMARKS
WILLISTON      SUNNY     66  26  22 W26G39    29.92R
MINOT          MOSUNNY   65  30  27 W21       29.86R
MINOT AFB      MOSUNNY   65  36  35 NW18G25   29.85R
$$

NDZ018>021-031>035-040>046-210000-
SOUTHWEST NORTH DAKOTA

CITY           SKY/WX    TMP DP  RH WIND       PRES   REMARKS
BISMARCK       PTSUNNY   75  32  20 NW24G35   29.87R
DICKINSON      MOSUNNY   66  24  20 NW23G36   29.95R
GARRISON         N/A     66  28  24 W21G32    29.89R
HETTINGER ARPT MOSUNNY   67  24  19 NW20G32   29.97R
$$

NDZ004>008-012>016-024-026-027-054-210000-
NORTHEAST NORTH DAKOTA

CITY           SKY/WX    TMP DP  RH WIND       PRES   REMARKS
GRAND FORKS    CLOUDY    70  36  28 S10       29.86F
GRND FRKS AFB  CLOUDY    71  37  29 S12       29.87F
DEVILS LAKE    CLOUDY    68  34  28 S14       29.81F
$$

NDZ022-023-025-028>030-036>039-047>053-210000-
SOUTHEAST NORTH DAKOTA

CITY           SKY/WX    TMP DP  RH WIND       PRES   REMARKS
FARGO          MOSUNNY   74  30  19 SW10      29.89F
JAMESTOWN      CLOUDY    74  31  20 S14G22    29.85F
$$




USA.gov is the U.S. government's official web portal to all federal, state and local government web resources and services.